EN

Hourly Weather Ambala

Today, 28 January, Thursday

Time Temperature Precipitation Wind Pressure Humidity
00:00 +9°C° 0 mm 1 mps 738 mmHg 55%
01:00 +9°C° 0 mm 1 mps 738 mmHg 57%
02:00 +9°C° 0 mm 1 mps 738 mmHg 58%
03:00 +9°C° 0 mm 1 mps 738 mmHg 59%
04:00 +8°C° 0 mm 1 mps 737 mmHg 60%
05:00 +8°C° 0 mm 1 mps 737 mmHg 64%
06:00 +8°C° 0 mm 1 mps 738 mmHg 62%
07:00 +9°C° 0 mm 1 mps 738 mmHg 60%
08:00 +10°C° 0 mm 1 mps 739 mmHg 59%
09:00 +13°C° 0 mm 1 mps 739 mmHg 51%
10:00 +15°C° 0 mm 1 mps 739 mmHg 44%
11:00 +19°C° 0 mm 1 mps 739 mmHg 37%
12:00 +20°C° 0 mm 1 mps 739 mmHg 33%
13:00 +20°C° 0 mm 2 mps 738 mmHg 29%
14:00 +21°C° 0 mm 2 mps 738 mmHg 24%
15:00 +20°C° 0 mm 2 mps 737 mmHg 28%
16:00 +18°C° 0 mm 2 mps 737 mmHg 31%
17:00 +17°C° 0 mm 2 mps 737 mmHg 35%
18:00 +15°C° 0 mm 2 mps 738 mmHg 36%
19:00 +13°C° 0 mm 2 mps 738 mmHg 38%
20:00 +12°C° 0 mm 2 mps 738 mmHg 40%
21:00 +10°C° 0 mm 2 mps 738 mmHg 43%
22:00 +11°C° 0 mm 1 mps 739 mmHg 45%
23:00 +10°C° 0 mm 1 mps 739 mmHg 48%

Tomorrow, 29 January, Friday

Time Temperature Precipitation Wind Pressure Humidity
00:00 +10°C° 0 mm 1 mps 739 mmHg 50%
01:00 +9°C° 0 mm 1 mps 738 mmHg 52%
02:00 +9°C° 0 mm 1 mps 738 mmHg 54%
03:00 +8°C° 0 mm 1 mps 738 mmHg 55%
04:00 +8°C° 0 mm 1 mps 738 mmHg 57%
05:00 +6°C° 0 mm 2 mps 738 mmHg 58%
06:00 +8°C° 0 mm 1 mps 738 mmHg 58%
07:00 +9°C° 0 mm 1 mps 739 mmHg 57%
08:00 +9°C° 0 mm 1 mps 739 mmHg 56%
09:00 +12°C° 0 mm 2 mps 739 mmHg 48%
10:00 +15°C° 0 mm 2 mps 739 mmHg 41%
11:00 +18°C° 0 mm 3 mps 739 mmHg 33%
12:00 +19°C° 0 mm 3 mps 738 mmHg 29%
13:00 +21°C° 0 mm 4 mps 738 mmHg 26%
14:00 +22°C° 0 mm 4 mps 738 mmHg 22%
15:00 +20°C° 0 mm 4 mps 737 mmHg 26%
16:00 +18°C° 0 mm 3 mps 737 mmHg 30%
17:00 +17°C° 0 mm 3 mps 737 mmHg 34%
18:00 +14°C° 0 mm 3 mps 737 mmHg 37%
19:00 +13°C° 0 mm 3 mps 738 mmHg 40%
20:00 +11°C° 0 mm 3 mps 738 mmHg 43%
21:00 +10°C° 0 mm 3 mps 738 mmHg 44%
22:00 +10°C° 0 mm 3 mps 738 mmHg 45%
23:00 +9°C° 0 mm 3 mps 738 mmHg 47%

Day after tomorrow, 30 January, Saturday

Time Temperature Precipitation Wind Pressure Humidity
00:00 +9°C° 0 mm 3 mps 738 mmHg 48%
01:00 +8°C° 0 mm 3 mps 738 mmHg 49%
02:00 +8°C° 0 mm 3 mps 737 mmHg 50%
03:00 +7°C° 0 mm 3 mps 737 mmHg 52%
04:00 +7°C° 0 mm 3 mps 737 mmHg 53%
05:00 +7°C° 0 mm 3 mps 736 mmHg 54%
06:00 +7°C° 0 mm 3 mps 737 mmHg 52%
07:00 +8°C° 0 mm 2 mps 737 mmHg 51%
08:00 +8°C° 0 mm 2 mps 737 mmHg 49%
09:00 +11°C° 0 mm 3 mps 737 mmHg 42%
10:00 +16°C° 0 mm 3 mps 737 mmHg 34%
11:00 +19°C° 0 mm 4 mps 737 mmHg 27%
12:00 +20°C° 0 mm 4 mps 737 mmHg 25%
13:00 +21°C° 0 mm 4 mps 736 mmHg 23%
14:00 +22°C° 0 mm 4 mps 736 mmHg 21%
15:00 +21°C° 0 mm 4 mps 735 mmHg 24%
16:00 +19°C° 0 mm 3 mps 735 mmHg 28%
17:00 +18°C° 0 mm 3 mps 735 mmHg 31%
18:00 +16°C° 0 mm 3 mps 736 mmHg 33%
19:00 +13°C° 0 mm 3 mps 736 mmHg 35%
20:00 +12°C° 0 mm 2 mps 737 mmHg 37%
21:00 +12°C° 0 mm 2 mps 737 mmHg 39%
22:00 +10°C° 0 mm 2 mps 737 mmHg 41%
23:00 +9°C° 0 mm 2 mps 737 mmHg 44%

31 January, Sunday

Time Temperature Precipitation Wind Pressure Humidity
00:00 +9°C° 0 mm 2 mps 737 mmHg 45%
01:00 +9°C° 0 mm 2 mps 737 mmHg 46%
02:00 +8°C° 0 mm 2 mps 737 mmHg 47%
03:00 +8°C° 0 mm 2 mps 737 mmHg 47%
04:00 +7°C° 0 mm 2 mps 736 mmHg 48%
05:00 +7°C° 0 mm 2 mps 736 mmHg 48%
06:00 +9°C° 0 mm 1 mps 737 mmHg 48%
07:00 +9°C° 0 mm 1 mps 737 mmHg 47%
08:00 +10°C° 0 mm 1 mps 738 mmHg 46%
09:00 +13°C° 0 mm 1 mps 738 mmHg 39%
10:00 +16°C° 0 mm 2 mps 738 mmHg 33%
11:00 +19°C° 0 mm 2 mps 738 mmHg 26%
12:00 +20°C° 0 mm 2 mps 738 mmHg 23%
13:00 +23°C° 0 mm 2 mps 738 mmHg 21%
14:00 +24°C° 0 mm 3 mps 737 mmHg 18%
15:00 +23°C° 0 mm 2 mps 737 mmHg 21%
16:00 +20°C° 0 mm 2 mps 737 mmHg 25%
17:00 +18°C° 0 mm 2 mps 737 mmHg 29%
18:00 +17°C° 0 mm 2 mps 738 mmHg 31%
19:00 +15°C° 0 mm 2 mps 738 mmHg 33%
20:00 +13°C° 0 mm 2 mps 739 mmHg 36%
21:00 +13°C° 0 mm 2 mps 739 mmHg 38%
22:00 +12°C° 0 mm 1 mps 740 mmHg 40%
23:00 +12°C° 0 mm 1 mps 740 mmHg 42%

1 February, Monday

Time Temperature Precipitation Wind Pressure Humidity
00:00 +11°C° 0 mm 1 mps 740 mmHg 43%
01:00 +11°C° 0 mm 1 mps 739 mmHg 44%
02:00 +10°C° 0 mm 1 mps 739 mmHg 45%
03:00 +9°C° 0 mm 2 mps 739 mmHg 46%
04:00 +9°C° 0 mm 2 mps 739 mmHg 47%
05:00 +8°C° 0 mm 2 mps 738 mmHg 47%
06:00 +9°C° 0 mm 2 mps 739 mmHg 46%
07:00 +10°C° 0 mm 2 mps 739 mmHg 45%
08:00 +10°C° 0 mm 2 mps 740 mmHg 43%
09:00 +15°C° 0 mm 2 mps 740 mmHg 37%
10:00 +18°C° 0 mm 3 mps 740 mmHg 30%
11:00 +21°C° 0 mm 4 mps 740 mmHg 24%
12:00 +23°C° 0 mm 4 mps 739 mmHg 22%
13:00 +25°C° 0 mm 5 mps 739 mmHg 21%
14:00 +26°C° 0 mm 6 mps 738 mmHg 19%
15:00 +25°C° 0 mm 5 mps 738 mmHg 22%
16:00 +22°C° 0 mm 5 mps 738 mmHg 25%
17:00 +21°C° 0 mm 4 mps 737 mmHg 27%
18:00 +19°C° 0 mm 4 mps 738 mmHg 30%
19:00 +17°C° 0 mm 4 mps 738 mmHg 33%
20:00 +14°C° 0 mm 4 mps 739 mmHg 36%
21:00 +14°C° 0 mm 3 mps 739 mmHg 37%
22:00 +13°C° 0 mm 3 mps 739 mmHg 38%
23:00 +12°C° 0 mm 3 mps 739 mmHg 39%

2 February, Tuesday

Time Temperature Precipitation Wind Pressure Humidity
00:00 +13°C° 0 mm 2 mps 739 mmHg 40%
01:00 +12°C° 0 mm 2 mps 738 mmHg 41%
02:00 +12°C° 0 mm 2 mps 738 mmHg 42%
03:00 +11°C° 0 mm 1 mps 738 mmHg 43%
04:00 +11°C° 0 mm 1 mps 738 mmHg 45%
05:00 +10°C° 0 mm 1 mps 738 mmHg 46%
06:00 +11°C° 0 mm 1 mps 738 mmHg 46%
07:00 +12°C° 0 mm 1 mps 738 mmHg 45%
08:00 +13°C° 0 mm 1 mps 739 mmHg 45%
09:00 +16°C° 0 mm 1 mps 739 mmHg 39%
10:00 +20°C° 0 mm 1 mps 739 mmHg 33%
11:00 +23°C° 0 mm 2 mps 739 mmHg 27%
12:00 +24°C° 0 mm 2 mps 738 mmHg 25%
13:00 +26°C° 0 mm 1 mps 738 mmHg 23%
14:00 +27°C° 0 mm 1 mps 737 mmHg 21%
15:00 +26°C° 0 mm 1 mps 737 mmHg 24%
16:00 +24°C° 0 mm 1 mps 737 mmHg 28%
17:00 +23°C° 0 mm 1 mps 736 mmHg 31%
18:00 +21°C° 0 mm 1 mps 737 mmHg 34%
19:00 +19°C° 0 mm 1 mps 737 mmHg 37%
20:00 +15°C° 0 mm 0 mps 738 mmHg 40%
21:00 +15°C° 0 mm 1 mps 738 mmHg 41%
22:00 +15°C° 0 mm 2 mps 738 mmHg 41%
23:00 +15°C° 0 mm 2 mps 738 mmHg 42%
Show more